Regional Weather Roundup
Issued by NWS

Home | Current Version | Previous Version | Graphics & Text | Print | Product List | Glossary Off
Versions: 1 2 3 4 5 6 7 8 9 10 11 12 13 14 15 16 17 18 19 20 21 22 23 24 25 26 27 28 29 30 31 32 33 34 35 36 37 38 39 40 41 42 43 44 45 46 47 48 49 50

874
ASUS43 KMPX 110010
RWRMN
WEATHER ROUNDUP FOR MINNESOTA
NATIONAL WEATHER SERVICE TWIN CITIES/CHANHASSEN MN
600 PM CST SUN DEC 10 2017


NOTE: "FAIR" INDICATES FEW OR NO CLOUDS BELOW 12,000 FEET WITH NO
SIGNIFICANT WEATHER AND/OR OBSTRUCTIONS TO VISIBILITY. N/A MEANS
CURRENT SKY AND/OR WEATHER CONDITIONS ARE NOT AVAILABLE.

MNZ060>063-068>070-110100-
   Twin Cities Metro

CITY           SKY/WX    TMP DP  RH WIND       PRES   REMARKS
TWIN CITIES    PTCLDY    27  21  78 CALM      30.05S
6HR MIN TEMP:  25; 6HR MAX TEMP:  29;

ST PAUL        CLEAR     23  19  85 CALM      30.07R
CRYSTAL        CLEAR     22  16  78 CALM      30.03F
BLAINE         CLEAR     23  19  86 CALM      30.04S
LAKEVILLE      CLEAR     21  19  93 CALM      30.05S
EDEN PRAIRIE   CLEAR     26  20  77 CALM      30.04S
6HR MIN TEMP:  25; 6HR MAX TEMP:  31;

SOUTH ST PAUL  CLEAR     24  20  85 CALM      30.05F
LAKE ELMO      FAIR      21  18  86 CALM      30.05F
$$
MNZ001>005-007-008-013>017-022>024-027-028-110100-
   Northwest Minnesota

CITY           SKY/WX    TMP DP  RH WIND       PRES   REMARKS
BEMIDJI        CLOUDY    17  14  88 CALM      29.97F
HALLOCK        MOCLDY    23  19  86 S12       29.94F WCI  12
ROSEAU         PTCLDY    14  10  85 S6        29.95F WCI   5
WARROAD        CLOUDY    14  10  85 S3        29.96F
THIEF RVR FALL CLOUDY    18  16  93 S7        29.96F WCI   8
CROOKSTON      CLOUDY    23  19  86 S8        29.98F WCI  14
FOSSTON        CLOUDY    16  14  93 S6        29.97F WCI   7
DETROIT LAKES  CLOUDY    21  19  93 CALM      30.00F
MOORHEAD       CLOUDY    27  19  74 CALM      30.01F
PARK RAPIDS    CLOUDY    17  12  80 SW7       29.97F WCI   8
MAHNOMEN       CLOUDY    20  18  90 SW6       29.97F WCI  12
$$
MNZ006-009>011-018-025>026-110100-
   North Central Minnesota

CITY           SKY/WX    TMP DP  RH WIND       PRES   REMARKS
BAUDETTE       CLOUDY    14  11  87 CALM      29.95F
FLAG ISLAND    CLOUDY    12   9  85 SE9       29.94F WCI   0
INTL FALLS     CLOUDY     3   0  87 CALM      29.97F
6HR MIN TEMP:   3; 6HR MAX TEMP:  19; 6HR PCP: TRACE;

WASKISH        CLOUDY    19  18  93 SE3       29.97F
BIG FORK       FLURRIES  18  12  79 CALM      29.97F
GRAND RAPIDS   CLOUDY    20  15  81 CALM      30.00F
ORR            CLOUDY     9   5  85 CALM      29.96F
COOK           CLOUDY     7   3  85 CALM      29.99F
WALKER         FAIR      18  13  81 CALM      29.97F
$$
MNZ012-019>021-037-110100-
   Northeast Minnesota

CITY           SKY/WX    TMP DP  RH WIND       PRES   REMARKS
DULUTH         CLOUDY    14  10  84 NW5       29.99F WCI   6
6HR MIN TEMP:  14; 6HR MAX TEMP:  21;

ELY            CLOUDY     5   1  85 CALM      29.99S
HIBBING        CLOUDY     9   7  92 CALM      29.99F
EVELETH        CLOUDY     7   1  78 CALM      30.00S
DULUTH HARBOR  CLOUDY    21  12  68 NW5       30.06S WCI  15
TWO HARBORS    CLOUDY    16   7  67 CALM      29.99S
G MARAIS ARPRT CLEAR      3  -2  78 NW3       29.96R
$$
MNZ029>031-032-039>041-046>048-054>057-064-110100-
   West Central Minnesota

CITY           SKY/WX    TMP DP  RH WIND       PRES   REMARKS
FERGUS FALLS   CLOUDY    27  19  74 CALM      30.04F
MORRIS         CLOUDY    30  23  74 CALM      30.02F
ALEXANDRIA     CLOUDY    26  20  77 W6        30.01S WCI  19
ELBOW LAKE     CLOUDY    28  22  80 CALM      30.03S HAZE
WADENA         CLOUDY    18  16  93 CALM      30.00S
GLENWOOD       CLOUDY    27  21  80 W6        30.02F WCI  20
BENSON         CLOUDY    30  25  80 CALM      30.05F
ORTONVILLE     CLOUDY    32  23  69 E3        30.02F
MADISON        CLOUDY    36  28  75 CALM      30.04F
WILLMAR        FAIR      32  25  74 W6        30.05S WCI  26
$$
MNZ033>034-036-042>043-049>051-058-059-110100-
   Central Minnesota

CITY           SKY/WX    TMP DP  RH WIND       PRES   REMARKS
ST CLOUD       CLOUDY    24  18  77 CALM      30.03S
6HR MIN TEMP:  21; 6HR MAX TEMP:  31;

SAUK CENTRE    FAIR      22  19  88 CALM      30.02S
PAYNESVILLE    CLOUDY    27  23  85 CALM      30.04R
AITKIN         CLEAR     14  10  85 CALM      30.00S
PINE RIVER     CLEAR     16  12  86 CALM      30.02F
BRAINERD       CLOUDY    23  16  74 CALM      30.00F
STAPLES        CLOUDY    19  16  86 CALM      30.00S
LONG PRAIRIE   FAIR      21  19  93 CALM      30.02S
LITTLE FALLS   CLOUDY    21  14  73 CALM      30.02F
LITCHFIELD     CLOUDY    28  25  86 CALM      30.05R
BUFFALO        CLOUDY    24  20  82 CALM      30.05S
MAPLE LAKE     CLOUDY    25  22  87 CALM      30.05S
HUTCHINSON     MOCLDY    29  24  80 CALM      30.06R
$$
MNZ037-044-045-052-053-110100-
   East Central Minnesota

CITY           SKY/WX    TMP DP  RH WIND       PRES   REMARKS
PRINCETON      CLEAR     19  16  86 CALM      30.03S
MORA           CLEAR     19  16  86 CALM      30.05S
CAMBRIDGE      CLEAR     21  14  73 CALM      30.03F
RUSH CITY      CLEAR     20  16  87 CALM      30.04S
MOOSE LAKE     CLOUDY    19  14  79 CALM      30.01S
HINCKLEY       FAIR      19  18  93 CALM      30.03S
CLOQUET        CLOUDY    19  12  73 CALM      30.01R
MCGREGOR       MOCLDY    21  18  86 CALM      30.01S
$$
MNZ071>073-080-081-089-090-097-098-110100-
   Southwest Minnesota

CITY           SKY/WX    TMP DP  RH WIND       PRES   REMARKS
MONTEVIDEO     CLOUDY    34  25  69 CALM      30.05S
GRANITE FALLS  CLOUDY    35  26  69 NW3       30.06S
CANBY          CLOUDY    33  28  80 CALM      30.05S
MARSHALL       CLOUDY    35  26  69 CALM      30.05S
REDWOOD FALLS  CLOUDY    34  23  64 N3        30.05S
OLIVIA         CLEAR     34  27  75 NW5       30.04S WCI  30
PIPESTONE      CLOUDY    34  27  75 W6        30.03S WCI  29
WINDOM         CLOUDY    34  19  55 CALM      30.04F
WORTHINGTON    CLOUDY    35  28  75 CALM      30.05S
JACKSON        CLOUDY    32  27  80 MISG      30.05S
TRACY          CLOUDY    34  28  79 CALM      30.04S
$$
MNZ065>067-074>077-082>085-091>093-110100-
   South Central Minnesota

CITY           SKY/WX    TMP DP  RH WIND       PRES   REMARKS
MANKATO        CLOUDY    28  23  81 CALM      30.05S
NEW ULM        CLOUDY    30  25  80 W5        30.06S WCI  25
ST JAMES       CLOUDY    32  27  80 W3        30.06F
FAIRMONT       CLOUDY    33  26  75 NW5       30.06S WCI  29
GLENCOE        CLOUDY    27  24  85 CALM      30.04S
FARIBAULT      CLEAR     21  19  93 CALM      30.06S
WASECA         CLOUDY    27  21  80 CALM      30.06S
ALBERT LEA     CLOUDY    27  21  80 CALM      30.06R
$$
MNZ078>079-086>088-094>096-110100-
   Southeast Minnesota

CITY           SKY/WX    TMP DP  RH WIND       PRES   REMARKS
ROCHESTER      CLOUDY    27  21  78 NW9       30.04R WCI  18
6HR MIN TEMP:  27; 6HR MAX TEMP:  28;

RED WING       CLOUDY    27  18  69 CALM      30.06R
STANTON        CLEAR     23  19  85 CALM      30.04S
DODGE CENTER   CLOUDY    27  21  80 W7        30.05R WCI  19
WINONA         CLOUDY    30  23  74 CALM      30.09R
AUSTIN         PTCLDY    25  21  86 N3        30.06R
PRESTON        CLOUDY    27  21  79 NW6       30.05R WCI  20
$$
ABBREVIATIONS USED IN REMARKS
   TC - TEMPERATURES IN CELSIUS
  WCI - WIND CHILL INDEX
   HX - HEAT INDEX
  VSB - VISIBILITY
$$




USA.gov is the U.S. government's official web portal to all federal, state and local government web resources and services.